GW0136 Weather Reports


time (UTC)temp
C
wind
direction
speed
KPH
gust
KPH
rain 1hr
cm
rain 24hr
cm
rain mn
cm
humidity
%
barometer
mb
20260506070522 14 325 12.9 35.4 0.00 0.30 0.00 41 1015.4
20260506062022 14 205 14.5 33.8 0.00 0.30 0.30 37 1015.3
20260506061535 14 190 6.4 33.8 0.00 0.30 0.30 37 1015.4
20260506061022 14 203 17.7 33.8 0.00 0.30 0.30 37 1015.3
20260506060526 14 177 8.0 20.9 0.00 0.30 0.30 38 1015.3
20260506051022 14 325 11.3 25.7 0.00 0.30 0.30 38 1015.0
20260506050522 14 313 9.7 25.7 0.00 0.30 0.30 38 1015.1
20260506045022 15 302 3.2 8.0 0.00 0.30 0.30 37 1015.0
20260506044538 15 360 3.2 14.5 0.00 0.30 0.30 35 1014.9
20260506044024 15 0 1.6 19.3 0.00 0.30 0.30 35 1014.9
20260506043526 15 247 6.4 20.9 0.00 0.30 0.30 36 1014.9
20260506043043 15 226 12.9 20.9 0.00 0.30 0.30 36 1014.9
20260506042522 15 169 9.7 17.7 0.00 0.30 0.30 36 1014.8
20260506042023 15 207 9.7 17.7 0.00 0.30 0.30 38 1014.8
20260506041535 15 175 8.0 17.7 0.00 0.30 0.30 38 1014.8
20260506041022 15 203 9.7 19.3 0.00 0.30 0.30 38 1014.6
20260506040519 15 206 8.0 25.7 0.00 0.30 0.30 38 1014.6
20260506040037 16 186 11.3 35.4 0.00 0.30 0.30 38 1014.5
20260506035522 16 225 14.5 35.4 0.00 0.30 0.30 37 1014.4
20260506035022 16 215 8.0 20.9 0.00 0.30 0.30 38 1014.3
20260506034535 16 153 8.0 29.0 0.00 0.30 0.30 37 1014.3
20260506034023 16 185 11.3 29.0 0.00 0.30 0.30 36 1014.1
20260506033522 16 178 14.5 27.4 0.00 0.30 0.30 36 1014.1
20260506033037 16 226 11.3 24.1 0.00 0.30 0.30 35 1013.9
20260506032522 16 161 9.7 24.1 0.00 0.30 0.30 36 1013.8
20260506032022 16 206 11.3 24.1 0.00 0.30 0.30 35 1013.7
20260506031541 16 200 8.0 25.7 0.00 0.30 0.30 35 1013.6
20260506031025 16 214 14.5 30.6 0.00 0.30 0.30 34 1013.6
20260506030522 16 198 11.3 30.6 0.00 0.30 0.30 35 1013.6
20260506030035 16 172 12.9 30.6 0.00 0.30 0.30 34 1013.4
20260506025522 16 192 11.3 29.0 0.00 0.30 0.30 35 1013.3
20260506025021 16 175 9.7 19.3 0.00 0.30 0.30 35 1013.1
20260506024538 16 214 11.3 30.6 0.00 0.30 0.30 35 1013.1
20260506024022 17 180 12.9 30.6 0.00 0.30 0.30 35 1012.9
20260506023521 17 144 14.5 25.7 0.00 0.30 0.30 35 1013.0
20260506023051 17 222 8.0 19.3 0.00 0.30 0.30 35 1013.0
20260506022522 17 175 9.7 24.1 0.00 0.30 0.30 35 1012.8
20260506022026 17 206 6.4 29.0 0.00 0.30 0.30 35 1012.7
20260506021601 17 182 11.3 32.2 0.00 0.30 0.30 34 1012.6
20260506021025 17 143 14.5 32.2 0.00 0.30 0.30 34 1012.3
20260506020521 17 211 14.5 32.2 0.00 0.30 0.30 34 1012.4
20260506020035 17 186 17.7 32.2 0.00 0.30 0.30 33 1012.4
20260506015525 17 188 11.3 29.0 0.00 0.30 0.30 34 1012.2
20260506015024 17 211 17.7 32.2 0.00 0.30 0.30 33 1012.1
20260506014534 17 188 17.7 32.2 0.00 0.30 0.30 32 1012.1
20260506014022 17 213 16.1 32.2 0.00 0.30 0.30 32 1012.1
20260506013522 18 232 22.5 33.8 0.00 0.30 0.30 32 1012.1
20260506013035 18 219 17.7 33.8 0.00 0.30 0.30 32 1011.9
20260506012522 18 197 19.3 29.0 0.00 0.30 0.30 32 1011.7
20260506012022 18 218 12.9 25.7 0.00 0.30 0.30 31 1011.7
20260506011540 18 214 11.3 27.4 0.00 0.30 0.30 32 1011.5
20260506011022 18 200 11.3 27.4 0.00 0.30 0.30 31 1011.7
20260506010522 18 145 14.5 25.7 0.00 0.30 0.30 31 1011.6
20260506010036 18 198 12.9 30.6 0.00 0.30 0.30 32 1011.5
20260506005522 18 208 17.7 30.6 0.00 0.30 0.30 31 1011.5
20260506005025 18 244 12.9 38.6 0.00 0.30 0.30 30 1011.4
20260506004535 18 231 17.7 38.6 0.00 0.30 0.30 30 1011.5
20260506004022 18 223 19.3 37.0 0.00 0.30 0.30 30 1011.4
20260506003522 19 182 12.9 33.8 0.00 0.30 0.30 29 1011.4
20260506003033 19 192 16.1 33.8 0.00 0.30 0.30 29 1011.4
20260506002522 19 186 19.3 30.6 0.00 0.30 0.30 29 1011.1
20260506002024 19 162 12.9 41.8 0.00 0.30 0.30 28 1011.1
20260506001541 20 156 17.7 41.8 0.00 0.30 0.30 29 1011.2
20260506001022 19 184 14.5 24.1 0.00 0.30 0.30 29 1011.2
20260506000525 19 138 14.5 35.4 0.00 0.30 0.30 30 1011.1
20260506000042 19 196 17.7 35.4 0.00 0.30 0.30 30 1011.4
20260505235523 19 173 19.3 35.4 0.00 0.30 0.30 28 1011.4
20260505235023 20 210 16.1 30.6 0.00 0.30 0.30 29 1011.4
20260505234538 20 216 17.7 33.8 0.00 0.30 0.30 27 1011.2
20260505234019 20 210 22.5 46.7 0.00 0.30 0.30 28 1011.1
20260505233523 20 175 20.9 46.7 0.00 0.30 0.30 28 1011.5
20260505233037 20 188 11.3 38.6 0.00 0.30 0.30 28 1011.5
20260505232521 20 193 17.7 46.7 0.00 0.30 0.30 26 1011.2
20260505232026 20 159 19.3 46.7 0.00 0.30 0.30 26 1011.2
20260505231548 21 150 20.9 37.0 0.00 0.30 0.30 25 1011.1
20260505231025 20 161 19.3 43.5 0.00 0.30 0.30 27 1011.2
20260505230524 21 205 19.3 45.1 0.00 0.30 0.30 24 1011.2
20260505230040 21 232 22.5 45.1 0.00 0.30 0.30 23 1011.3
20260505225522 21 195 24.1 43.5 0.00 0.30 0.30 24 1011.2
20260505225019 21 168 14.5 40.2 0.00 0.30 0.30 26 1011.4
20260505224539 20 198 17.7 40.2 0.00 0.30 0.30 28 1011.5
20260505224022 20 159 17.7 41.8 0.00 0.30 0.30 28 1011.5
20260505223523 21 157 17.7 41.8 0.00 0.30 0.30 26 1011.5
20260505223037 20 208 25.7 41.8 0.00 0.30 0.30 27 1011.7
20260505222522 20 201 17.7 51.5 0.00 0.30 0.30 28 1011.8
20260505222025 20 142 24.1 51.5 0.00 0.30 0.30 28 1011.7
20260505221534 20 141 20.9 37.0 0.00 0.30 0.30 32 1011.5
20260505221022 20 171 14.5 35.4 0.00 0.30 0.30 34 1011.8
20260505220526 20 193 17.7 30.6 0.00 0.30 0.30 34 1011.9
20260505220033 20 225 17.7 32.2 0.00 0.30 0.30 33 1012.0
20260505215523 21 127 19.3 32.2 0.00 0.30 0.30 31 1012.1
20260505215019 20 150 20.9 41.8 0.00 0.30 0.30 34 1012.1
20260505214550 20 171 22.5 41.8 0.00 0.30 0.30 32 1012.1
20260505214021 21 157 22.5 43.5 0.00 0.30 0.30 31 1012.3
20260505213522 20 181 25.7 45.1 0.00 0.30 0.30 33 1012.3
20260505213039 21 188 25.7 45.1 0.00 0.30 0.30 30 1012.4
20260505212520 21 156 22.5 45.1 0.00 0.30 0.30 32 1012.6
20260505212019 21 193 16.1 37.0 0.00 0.30 0.30 33 1012.6
20260505211536 21 165 17.7 32.2 0.00 0.30 0.30 34 1012.7
20260505211021 20 171 17.7 32.2 0.00 0.30 0.30 37 1012.7
20260505210518 21 134 17.7 37.0 0.00 0.30 0.30 35 1012.8
20260505210035 21 176 22.5 37.0 0.00 0.30 0.30 36 1012.9
20260505205527 21 166 17.7 33.8 0.00 0.30 0.30 36 1013.0
20260505205023 21 144 12.9 25.7 0.00 0.30 0.30 36 1013.0
20260505204540 20 210 12.9 35.4 0.00 0.30 0.30 38 1013.3
20260505204022 20 232 20.9 35.4 0.00 0.30 0.30 35 1013.3
20260505203522 21 136 14.5 41.8 0.00 0.30 0.30 35 1013.0
20260505203056 20 142 12.9 43.5 0.00 0.30 0.30 37 1013.2
20260505202521 21 200 19.3 43.5 0.00 0.30 0.30 37 1013.4
20260505202023 20 174 19.3 43.5 0.00 0.30 0.30 39 1013.3
20260505201541 20 182 19.3 45.1 0.00 0.30 0.30 37 1013.4
20260505201026 20 198 20.9 45.1 0.00 0.30 0.30 39 1013.5
20260505200523 20 148 16.1 38.6 0.00 0.30 0.30 42 1013.4
20260505200043 20 158 16.1 35.4 0.00 0.30 0.30 42 1013.5
20260505195524 20 208 17.7 35.4 0.00 0.30 0.30 43 1013.6
20260505195022 20 185 17.7 40.2 0.00 0.30 0.30 42 1013.7
20260505194535 19 167 24.1 40.2 0.00 0.30 0.30 42 1013.7
20260505194026 19 142 19.3 35.4 0.00 0.30 0.30 43 1013.8
20260505193522 18 175 20.9 38.6 0.00 0.30 0.30 44 1013.9
20260505193034 18 202 19.3 38.6 0.00 0.30 0.30 45 1013.9
20260505192523 18 225 20.9 40.2 0.00 0.30 0.30 43 1013.8
20260505192020 18 139 14.5 43.5 0.00 0.30 0.30 45 1013.8
20260505191539 18 206 24.1 43.5 0.00 0.30 0.30 43 1014.0
20260505191023 19 181 19.3 35.4 0.00 0.30 0.30 44 1014.1
20260505190519 18 152 12.9 35.4 0.00 0.30 0.30 45 1014.2
20260505190037 17 360 17.7 35.4 0.00 0.30 0.30 48 1014.1
20260505185522 17 202 17.7 38.6 0.00 0.30 0.30 47 1014.3
20260505185021 17 186 16.1 41.8 0.00 0.30 0.30 46 1014.4
20260505184537 17 221 27.4 41.8 0.00 0.30 0.30 46 1014.5
20260505184026 17 235 19.3 41.8 0.00 0.30 0.30 45 1014.4
20260505183521 17 194 19.3 41.8 0.00 0.30 0.30 46 1014.7
20260505183036 17 217 22.5 45.1 0.00 0.30 0.30 43 1014.5
20260505182522 18 211 9.7 45.1 0.00 0.30 0.30 49 1014.3
20260505182019 17 229 16.1 37.0 0.00 0.30 0.30 46 1014.5
20260505181542 17 219 14.5 38.6 0.00 0.30 0.30 52 1014.5
20260505181023 17 195 19.3 38.6 0.00 0.30 0.30 50 1014.5
20260505180522 17 165 12.9 32.2 0.00 0.30 0.30 53 1014.6
20260505180039 17 232 12.9 32.2 0.00 0.30 0.30 51 1014.6
20260505175522 18 257 12.9 27.4 0.00 0.30 0.30 54 1014.9
20260505175019 17 125 11.3 27.4 0.00 0.30 0.30 53 1014.6
20260505174541 17 186 8.0 27.4 0.00 0.30 0.30 58 1014.8
20260505174018 17 142 12.9 27.4 0.00 0.30 0.30 57 1014.4
20260505173522 17 170 16.1 27.4 0.00 0.30 0.30 54 1014.9
20260505173035 17 172 8.0 32.2 0.00 0.30 0.30 58 1014.9
20260505172521 17 233 17.7 32.2 0.00 0.30 0.30 60 1014.9
20260505172022 16 198 9.7 30.6 0.00 0.30 0.30 61 1014.8
20260505171533 16 159 11.3 40.2 0.00 0.30 0.30 61 1014.8
20260505171023 16 199 12.9 40.2 0.00 0.30 0.30 64 1014.8
20260505170523 15 124 16.1 38.6 0.00 0.30 0.30 61 1014.7
20260505170045 15 167 17.7 35.4 0.00 0.30 0.30 64 1014.6
20260505165523 15 169 14.5 27.4 0.00 0.30 0.30 67 1014.8
20260505165019 15 162 12.9 24.1 0.00 0.30 0.30 66 1014.9
20260505164533 14 188 11.3 27.4 0.00 0.30 0.30 70 1014.8
20260505164024 13 189 9.7 29.0 0.03 0.30 0.30 68 1015.0
20260505163519 13 181 16.1 29.0 0.03 0.30 0.30 69 1015.0
20260505163037 13 170 12.9 22.5 0.03 0.30 0.30 72 1015.0
20260505162521 13 167 11.3 25.7 0.03 0.30 0.30 71 1014.9
20260505162022 12 155 11.3 25.7 0.03 0.30 0.30 75 1014.9
20260505161535 12 194 11.3 29.0 0.03 0.30 0.30 77 1015.0
20260505161022 12 173 14.5 29.0 0.05 0.30 0.30 77 1015.0
20260505160522 12 186 11.3 25.7 0.05 0.30 0.30 78 1014.8
20260505153037 13 152 16.1 33.8 0.23 0.28 0.28 75 1014.5
20260505152523 13 182 14.5 27.4 0.23 0.28 0.28 81 1014.6
20260505152022 12 175 11.3 24.1 0.25 0.28 0.28 79 1014.3
20260505151553 11 161 6.4 24.1 0.25 0.28 0.28 81 1014.1
20260505151022 11 145 12.9 24.1 0.23 0.25 0.25 79 1014.3
20260505150523 11 160 11.3 30.6 0.20 0.23 0.23 78 1014.5
20260505140522 12 148 8.0 17.7 0.03 0.03 0.03 69 1013.7
20260505125022 11 0 0.0 6.4 0.00 0.00 0.00 79 1013.9
20260505124541 11 168 3.2 9.7 0.00 0.00 0.00 78 1014.3
20260505124027 11 168 4.8 9.7 0.00 0.00 0.00 76 1014.1
20260505123522 11 115 1.6 11.3 0.00 0.00 0.00 77 1014.6
20260505123040 11 115 3.2 12.9 0.00 0.00 0.00 73 1014.5
20260505122522 12 118 4.8 14.5 0.00 0.00 0.00 72 1014.3
20260505122022 12 157 4.8 14.5 0.00 0.00 0.00 68 1014.3
20260505121537 12 141 6.4 14.5 0.00 0.00 0.00 67 1014.3
20260505121023 12 160 8.0 14.5 0.00 0.00 0.00 65 1014.1
20260505120524 12 145 8.0 17.7 0.00 0.00 0.00 65 1014.1
20260505120039 12 156 9.7 17.7 0.00 0.00 0.00 65 1014.0
20260505115521 12 163 6.4 12.9 0.00 0.00 0.00 65 1014.1
20260505115023 12 197 6.4 12.9 0.00 0.00 0.00 64 1014.2
20260505114541 12 168 4.8 9.7 0.00 0.00 0.00 62 1014.3
20260505114024 12 190 6.4 9.7 0.00 0.00 0.00 62 1014.3
20260505113522 12 199 4.8 9.7 0.00 0.00 0.00 61 1014.3
20260505113041 12 176 3.2 9.7 0.00 0.00 0.00 60 1014.6
20260505112522 13 167 3.2 9.7 0.00 0.00 0.00 60 1014.5
20260505112022 13 113 1.6 11.3 0.00 0.00 0.00 59 1014.5
20260505111541 13 113 3.2 11.3 0.00 0.00 0.00 57 1014.7
20260505111022 13 173 4.8 11.3 0.00 0.00 0.00 53 1014.7
20260505110523 13 208 8.0 11.3 0.00 0.00 0.00 52 1014.7
20260505102022 13 214 1.6 4.8 0.00 0.00 0.00 53 1015.0
20260505101541 13 0 1.6 6.4 0.00 0.00 0.00 49 1014.7
20260505101022 13 214 1.6 9.7 0.00 0.00 0.00 49 1014.7
20260505100523 13 214 4.8 9.7 0.00 0.00 0.00 50 1014.7
20260505100035 13 203 6.4 9.7 0.00 0.00 0.00 50 1014.9
20260505095522 13 217 3.2 11.3 0.00 0.00 0.00 50 1014.7
20260505095022 13 207 6.4 11.3 0.00 0.00 0.00 51 1014.9
20260505094537 13 222 8.0 11.3 0.00 0.00 0.00 51 1014.9
20260505094022 13 205 6.4 9.7 0.00 0.00 0.00 52 1014.9
20260505093522 13 200 6.4 9.7 0.00 0.00 0.00 53 1015.1
20260505093040 13 163 4.8 9.7 0.00 0.00 0.00 52 1015.0
20260505092522 13 159 3.2 9.7 0.00 0.00 0.00 51 1015.1
20260505092022 14 210 0.0 6.4 0.00 0.00 0.00 48 1015.1
20260505091538 14 210 1.6 6.4 0.00 0.00 0.00 47 1015.1
20260505091024 14 210 1.6 6.4 0.00 0.00 0.00 47 1015.1
20260505090522 14 0 3.2 8.0 0.00 0.00 0.00 46 1015.1
20260505090051 14 210 3.2 9.7 0.00 0.00 0.00 47 1015.1
20260505085524 14 210 3.2 9.7 0.00 0.00 0.00 46 1015.1
20260505085022 14 171 4.8 9.7 0.00 0.00 0.00 47 1015.4
20260505084537 14 171 4.8 9.7 0.00 0.00 0.00 45 1015.3
20260505084022 14 0 1.6 9.7 0.00 0.00 0.00 44 1015.1
20260505083523 13 153 3.2 8.0 0.00 0.00 0.00 46 1015.1
20260505083039 13 203 3.2 11.3 0.00 0.00 0.00 48 1015.2
20260505082522 13 203 4.8 11.3 0.00 0.00 0.00 48 1015.3
20260505082019 13 212 4.8 8.0 0.00 0.00 0.00 51 1015.7
20260505081542 13 196 3.2 11.3 0.00 0.00 0.00 53 1015.8
20260505081023 13 189 6.4 11.3 0.00 0.00 0.00 52 1015.8
20260505080522 13 189 3.2 9.7 0.00 0.00 0.00 52 1015.7
20260505080033 13 181 4.8 9.7 0.00 0.00 0.00 51 1015.5
20260505075522 13 180 4.8 11.3 0.00 0.00 0.00 50 1015.6
20260505075022 13 182 6.4 11.3 0.00 0.00 0.00 50 1015.5
20260505074535 13 202 6.4 12.9 0.00 0.00 0.00 51 1015.6
20260505074022 13 173 4.8 12.9 0.00 0.00 0.00 52 1015.7
20260505073523 13 157 4.8 9.7 0.00 0.00 0.00 50 1015.8
20260505073038 13 208 6.4 9.7 0.00 0.00 0.00 50 1015.8
20260505072523 13 177 6.4 9.7 0.00 0.00 0.00 49 1015.7
20260505072023 14 177 4.8 9.7 0.00 0.00 0.00 49 1015.6
20260505071536 14 0 1.6 8.0 0.00 0.00 0.00 48 1015.6
20260505071022 14 212 6.4 9.7 0.00 0.00 0.00 49 1015.8